[[{"header":{"parameterUnit":"m.s-1","parameterCategory":1,"la1":30.2992,"la2":30.254,"lo1":-89.0895,"lo2":-89.0443,"dy":0.0025,"dx":0.0025,"nx":19,"ny":19,"refTime":"2026-04-16T21:00:00:Z","depth":0,"parameterNumber":2,"parameterNumberName":"U-component_of_WINDS"},"data":[0,0,0,-0.172,-0.1717,-0.1538,-0.1537,-0.1328,-0.1326,0,0,0,0,0,0,0,0,0,0,0,-0.1789,-0.1789,-0.1721,-0.1717,-0.1538,-0.1537,-0.1328,-0.1326,0,0,0,0,0,0,0,0,0,0,0,-0.179,-0.1789,-0.1788,-0.1716,-0.1538,-0.1537,-0.1329,-0.1455,0,0,0,0,0,0,0,0,0,0,-0.1625,-0.1706,-0.1789,-0.1788,-0.1715,-0.1538,-0.1537,-0.1461,-0.1447,-0.1419,0,-0.1401,0,-0.1361,-0.1314,-0.1313,0,0,0,-0.1703,-0.1718,-0.1655,-0.1788,-0.1714,-0.1539,-0.1615,-0.1453,-0.1438,-0.1401,-0.1398,-0.139,-0.1358,-0.1313,-0.1312,-0.1201,-0.1201,0,0,-0.1713,-0.1765,-0.1666,-0.1646,-0.168,-0.1621,-0.1609,-0.1444,-0.1442,-0.1397,-0.1384,-0.1354,-0.1311,-0.131,-0.12,-0.1201,0,0,0,-0.175,-0.1772,-0.1713,-0.1656,-0.1622,-0.1616,-0.1603,-0.145,-0.1426,-0.1382,-0.1352,-0.131,-0.1308,-0.12,-0.1201,-0.1259,0,0,0,-0.1756,-0.1794,-0.1719,-0.1748,-0.1626,-0.1535,-0.1613,-0.1438,-0.1418,-0.1353,-0.131,-0.1306,-0.12,-0.12,-0.1257,-0.1276,0,0,0,-0.1795,-0.1798,-0.1779,-0.1752,-0.1677,-0.1536,-0.1503,-0.1432,-0.14,-0.1313,-0.1306,-0.12,-0.12,-0.1255,-0.1273,-0.1263,0,0,0,-0.1852,-0.1831,-0.1781,-0.1745,-0.1679,-0.1575,-0.1503,-0.1422,-0.1355,-0.1309,-0.12,-0.12,-0.1254,-0.1272,-0.1261,-0.1264,-0.127,0,0,-0.1854,-0.1833,-0.1808,-0.1758,-0.1677,-0.1598,-0.1523,-0.1409,-0.1351,-0.1253,-0.1249,-0.1257,-0.1273,-0.1262,-0.1286,-0.1292,0,0,0,-0.1826,-0.1809,-0.1776,-0.1716,-0.1632,-0.156,-0.1454,-0.1412,-0.1327,-0.1313,-0.1249,-0.1257,-0.1248,-0.1246,-0.1251,-0.124,-0.1202,-0.1202,-0.1202,-0.1903,-0.1833,-0.1786,-0.1695,-0.1638,-0.1529,-0.1475,-0.1398,-0.1342,-0.1328,-0.1298,-0.1322,-0.1322,-0.1325,-0.1314,-0.1294,-0.1294,-0.1294,-0.1294,-0.19,-0.1864,-0.1792,-0.1721,-0.1646,-0.1583,-0.1476,-0.1439,-0.1367,-0.1338,-0.1327,-0.1301,-0.1333,-0.132,-0.1298,-0.1297,-0.1297,-0.1296,-0.1296,-0.1943,-0.1913,-0.1865,-0.1772,-0.1707,-0.1613,-0.1549,-0.1481,-0.1416,-0.1406,-0.1366,-0.1365,-0.1355,-0.1392,-0.1392,-0.1392,-0.1392,-0.1392,-0.1392,-0.2006,-0.195,-0.1907,-0.1816,-0.1769,-0.1698,-0.1588,-0.1538,-0.1465,-0.142,-0.1419,-0.1364,-0.135,-0.1349,-0.1393,-0.1393,-0.1393,-0.1393,-0.1393,-0.2029,-0.2013,-0.1947,-0.19,-0.1787,-0.1727,-0.1642,-0.1546,-0.1495,-0.1465,-0.1411,-0.1413,-0.1385,-0.138,-0.1378,-0.1428,-0.1428,-0.1428,-0.1428,-0.2065,-0.2046,-0.1962,-0.1892,-0.1814,-0.1731,-0.1654,-0.1567,-0.1474,-0.1437,-0.142,-0.1411,-0.141,-0.1383,-0.1378,-0.1375,-0.1423,-0.1423,-0.1423,-0.2075,-0.2045,-0.1995,-0.1908,-0.1814,-0.1735,-0.166,-0.1578,-0.1469,-0.1421,-0.1407,-0.1407,-0.1392,-0.1391,-0.1343,-0.1338,-0.1331,0,0]},{"header":{"parameterUnit":"m.s-1","parameterCategory":1,"la1":30.2992,"la2":30.254,"lo1":-89.0895,"lo2":-89.0443,"dy":0.0025,"dx":0.0025,"nx":19,"ny":19,"refTime":"2026-04-16T21:00:00:Z","depth":0,"parameterNumber":3,"parameterNumberName":"V-component_of_WINDS"},"data":[0,0,0,3.335,3.3349,3.3335,3.3335,3.3305,3.3305,0,0,0,0,0,0,0,0,0,0,0,3.3349,3.3348,3.335,3.3349,3.3335,3.3335,3.3306,3.3305,0,0,0,0,0,0,0,0,0,0,0,3.3349,3.3348,3.3348,3.3349,3.3335,3.3335,3.3306,3.332,0,0,0,0,0,0,0,0,0,0,3.3336,3.333,3.3348,3.3348,3.3349,3.3335,3.3335,3.3321,3.3319,3.3308,0,3.3298,0,3.3301,3.3303,3.3302,0,0,0,3.3353,3.3331,3.3333,3.3348,3.3349,3.3335,3.3342,3.332,3.3318,3.3306,3.3297,3.3296,3.3301,3.3302,3.3302,3.3229,3.3229,0,0,3.3353,3.3343,3.3334,3.3331,3.3334,3.3343,3.3342,3.3319,3.3309,3.3297,3.3296,3.33,3.3302,3.3302,3.323,3.3229,0,0,0,3.3353,3.3343,3.3345,3.3332,3.333,3.3342,3.3341,3.331,3.3311,3.3296,3.33,3.3302,3.3301,3.323,3.3229,3.3194,0,0,0,3.3354,3.3343,3.3345,3.3338,3.333,3.332,3.3332,3.3313,3.3311,3.33,3.3302,3.3301,3.3231,3.323,3.3196,3.3178,0,0,0,3.3351,3.3343,3.3339,3.3338,3.3331,3.3321,3.3321,3.3313,3.3313,3.3302,3.3301,3.3231,3.323,3.3198,3.3181,3.3155,0,0,0,3.3345,3.3306,3.3338,3.3297,3.3331,3.3299,3.3321,3.3298,3.3285,3.3302,3.3231,3.3229,3.3198,3.3183,3.3157,3.3131,3.3119,0,0,3.329,3.3299,3.3276,3.3304,3.3264,3.3302,3.3257,3.3254,3.3263,3.324,3.3238,3.3195,3.3181,3.3156,3.3059,3.305,0,0,0,3.3255,3.3238,3.323,3.3218,3.3217,3.3214,3.322,3.3219,3.3201,3.3249,3.318,3.3172,3.3157,3.3145,3.3137,3.3125,3.3224,3.3224,3.3224,3.316,3.3175,3.3138,3.3151,3.3139,3.3147,3.3138,3.3139,3.3155,3.3139,3.3132,3.3072,3.3057,3.3051,3.3038,3.312,3.312,3.312,3.312,3.3081,3.3059,3.3085,3.3058,3.3073,3.305,3.3057,3.307,3.305,3.3078,3.3066,3.3094,3.304,3.303,3.3117,3.3118,3.3118,3.3118,3.3118,3.3019,3.3012,3.3013,3.2998,3.2985,3.3,3.298,3.2995,3.3009,3.2997,3.2991,3.2991,3.2993,3.2993,3.2993,3.2993,3.2993,3.2993,3.2992,3.2954,3.2957,3.294,3.2937,3.2932,3.2927,3.2936,3.2931,3.2929,3.2941,3.2941,3.2959,3.3033,3.3051,3.2989,3.299,3.299,3.2991,3.2991,3.2865,3.2889,3.2861,3.2856,3.2855,3.2841,3.2861,3.285,3.2848,3.2838,3.286,3.2913,3.2922,3.2929,3.2943,3.2858,3.2858,3.2858,3.2858,3.2812,3.282,3.2796,3.2788,3.2781,3.2797,3.2765,3.2773,3.2783,3.2783,3.2798,3.2819,3.2825,3.2832,3.284,3.2854,3.2747,3.2747,3.2747,3.2758,3.2766,3.2736,3.2749,3.275,3.2749,3.272,3.2708,3.2725,3.2743,3.2783,3.2788,3.2822,3.2833,3.2849,3.2862,3.2887,0,0]}]]